Regional Weather Roundup
Issued by NWS

Home | Current Version | Previous Version | Text Only | Print | Product List | Glossary Off
Versions: 1 2 3 4 5 6 7 8 9 10 11 12 13 14 15 16 17 18 19 20 21 22 23 24 25 26 27

000
ASUS45 KBOU 201507
RWRCO

WEATHER ROUNDUP FOR COLORADO
NATIONAL WEATHER SERVICE DENVER/BOULDER CO
900 AM MDT SUN AUG 20 2017

NOTE: "FAIR" INDICATES FEW OR NO CLOUDS BELOW 12000 FEET WITH NO
SIGNIFICANT WEATHER AND/OR OBSTRUCTIONS TO VISIBILITY.

COZ001>005-013-030-031-201600-
...NORTHWEST COLORADO...

CITY           SKY/WX    TMP DP  RH WIND       PRES   REMARKS
CRAIG          FAIR      62  38  40 CALM      30.23R
HAYDEN         FAIR      62  37  39 E13       30.26R
MEEKER         FAIR      63  38  39 VRB3      30.24S
RABBIT EARS PA FAIR      55  32  41 W6        30.53R
STEAMBOAT SPGS FAIR      56  39  51 CALM      30.27S
WALDEN         FAIR      57  37  47 CALM      30.37S
$$

COZ006>008-011-201600-
...WEST CENTRAL VALLEYS...

CITY           SKY/WX    TMP DP  RH WIND       PRES   REMARKS
GRAND JUNCTION FAIR      73  39  29 SE13      30.12R
MONTROSE       FAIR      67  41  38 S6        30.20S
EAGLE          FAIR      59  36  42 NW3       30.32S
RIFLE          FAIR      63  42  46 CALM      30.20R
DELTA          FAIR      66  40  38 CALM      30.18S
NUCLA          FAIR      63  37  39 N6        30.23R
$$

COZ017>023-064>068-201600-
...SOUTHWEST COLORADO...

CITY           SKY/WX    TMP DP  RH WIND       PRES   REMARKS
DURANGO        FAIR      64  41  42 CALM      30.25R
CORTEZ         FAIR      68  40  35 CALM      30.18R
PAGOSA SPRINGS FAIR      66  41  40 CALM      30.32F
TELLURIDE      FAIR      62  32  32 CALM      30.44S
WOLF CREEK PAS FAIR      54  32  43 NE3       30.67S
$$

COZ009-010-012-014-032>034-037-058>063-201600-
...CENTRAL COLORADO...

CITY           SKY/WX    TMP DP  RH WIND       PRES   REMARKS
ASPEN          FAIR      62  36  37 CALM      30.32S
BUENA VISTA    FAIR      57  36  44 CALM      30.36S
COPPER MTN     FAIR      55  28  35 W3        30.64R
BERTHOUD PASS  FAIR      46  43  87 W10G17    30.67R
COTTONWOOD PAS FAIR      63  30  29 E3        30.48R
GUNNISON       FAIR      52  36  54 CALM      30.39R
KREMMLING      FAIR      59  36  41 CALM      30.36S
LEADVILLE      FAIR      54  32  43 CALM      30.47S
MONARCH PASS   FAIR      54  28  37 SW6       30.74R
SALIDA         FAIR      62  36  38 W5        30.40S
SUNLIGHT       FAIR      55  32  41 CALM      30.57R
WILKERSON PASS FAIR      59  25  27 N6        30.61R
$$

COZ069>075-201600-
...SAN LUIS VALLEY/SANGRE DE CRISTO MOUNTAINS...

CITY           SKY/WX    TMP DP  RH WIND       PRES   REMARKS
ALAMOSA        FAIR      60  39  45 NW7       30.32S
DEL NORTE      FAIR      62  38  40 W6        30.36S
LA VETA PASS   NOT AVBL
SAGUACHE       FAIR      61  36  39 NW13      30.36S
$$

COZ035-036-038>040-201600-
...NORTHERN COLORADO FRONT RANGE...

CITY           SKY/WX    TMP DP  RH WIND       PRES   REMARKS
DENVER INTL AP PTSUNNY   75  39  27 SW9       30.11R
DMNS CITY PARK   N/A     74  43  32 SE7       30.12R
AURORA         PTSUNNY   73  43  33 SW9       30.14R
FRONT RANGE AP FAIR      79  41  25 W8        30.13R
ERIE MUNI ARPT FAIR      74  40  29 CALM      30.15R
BOULDER MUN AP FAIR      73  43  33 CALM      30.10S
CENTENNIAL     FAIR      75  40  28 W6        30.15R
BROOMFIELD     MOSUNNY   72  48  43 CALM      30.14R
FORT COLLINS   FAIR      68  47  46 CALM      30.10R
LONGMONT       FAIR      76  46  34 E3        30.11R
$$

COZ041-046-047-076>085-087-088-201600-
...PIKES PEAK/PALMER DIVIDE AND SOUTHERN FOOTHILLS...

CITY           SKY/WX    TMP DP  RH WIND       PRES   REMARKS
COLO. SPRINGS  PTSUNNY   79  42  26 NW9       30.17R
A. F. ACADEMY  FAIR      74  44  34 N7        30.19S
SCHRIEVER AFB  FAIR      79  41  25 N9        30.17R
CHEYENNE MTN   FAIR      77  33  20 N8        30.17R
ELLICOTT       NOT AVBL
FALCON         FAIR      76  38  25 N7        30.22S
FORT CARSON    FAIR      75  47  38 N9        30.13R
LIMON          FAIR      76  51  41 NW8       30.10R
MONUMENT HILL  FAIR      70  45  40 W6        30.25S
CANON CITY     SUNNY     77  43  29 W17G23    30.11S
WALSENBURG     FAIR      81  39  22 W16       30.15S
TRINIDAD       FAIR      71  47  42 W12       30.14R
$$

COZ042>045-048>051-090-091-201600-
...NORTHEAST COLORADO...

CITY           SKY/WX    TMP DP  RH WIND       PRES   REMARKS
GREELEY ARPT   FAIR      66  51  58 SE5       30.09R
AKRON          FAIR      71  43  36 NW8       30.07R
BURLINGTON     FAIR      79  58  48 W7        30.01R
WRAY           NOT AVBL
YUMA           FAIR      70  37  30 NW9       30.02S
STERLING       NOT AVBL
HOLYOKE        FAIR      73  61  64 N9        30.01S
FORT MORGAN    FAIR      69  48  47 CALM      30.07R
$$

COZ086-089-092>099-201600-
...SOUTHEAST COLORADO...

CITY           SKY/WX    TMP DP  RH WIND       PRES   REMARKS
PUEBLO         FAIR      75  49  39 CALM      30.06R
LA JUNTA       FAIR      71  54  54 NW6       30.02R
LAMAR          FAIR      71  55  56 W8        29.98R
SPRINGFIELD      N/A     74  56  53 SW16      30.03S
$$




USA.gov is the U.S. government's official web portal to all federal, state and local government web resources and services.